TimeEDT,TemperatureF,Dew PointF,Humidity,Sea Level PressureIn,VisibilityMPH,Wind Direction,Wind SpeedMPH,Gust SpeedMPH,PrecipitationIn,Events,Conditions,WindDirDegrees,DateUTC
12:53 AM,59.0,55.9,90,30.04,10.0,Calm,Calm,-,N/A,,Clear,0,2013-07-12 04:53:00
1:53 AM,57.9,55.0,90,30.04,10.0,Calm,Calm,-,N/A,,Clear,0,2013-07-12 05:53:00
2:53 AM,57.0,55.0,93,30.05,8.0,Calm,Calm,-,N/A,,Clear,0,2013-07-12 06:53:00
3:53 AM,57.9,55.9,93,30.05,10.0,Calm,Calm,-,N/A,,Mostly Cloudy,0,2013-07-12 07:53:00
4:53 AM,57.0,55.0,93,30.05,9.0,West,3.5,-,0.01,,Clear,270,2013-07-12 08:53:00
5:53 AM,57.0,55.0,93,30.06,7.0,Calm,Calm,-,N/A,,Clear,0,2013-07-12 09:53:00
6:53 AM,57.9,55.9,93,30.07,8.0,Calm,Calm,-,N/A,,Clear,0,2013-07-12 10:53:00
7:53 AM,62.1,57.9,86,30.08,10.0,NW,4.6,-,N/A,,Clear,320,2013-07-12 11:53:00
8:53 AM,66.0,59.0,78,30.09,10.0,North,5.8,-,N/A,,Clear,10,2013-07-12 12:53:00
9:53 AM,69.1,61.0,75,30.09,10.0,North,6.9,-,N/A,,Scattered Clouds,10,2013-07-12 13:53:00
10:53 AM,73.0,62.1,68,30.08,10.0,ENE,6.9,-,N/A,,Partly Cloudy,60,2013-07-12 14:53:00
11:53 AM,72.0,62.1,71,30.09,10.0,NNE,8.1,-,N/A,,Clear,30,2013-07-12 15:53:00
12:53 PM,66.0,60.1,81,30.09,10.0,ENE,5.8,-,N/A,,Partly Cloudy,70,2013-07-12 16:53:00
1:53 PM,75.0,60.1,60,30.09,10.0,NE,6.9,-,N/A,,Partly Cloudy,40,2013-07-12 17:53:00
2:53 PM,75.0,60.1,60,30.09,10.0,ENE,6.9,-,0.00,Rain,Light Rain,70,2013-07-12 18:53:00
3:53 PM,77.0,60.1,56,30.07,10.0,NE,6.9,-,0.00,,Clear,50,2013-07-12 19:53:00
4:53 PM,75.0,59.0,57,30.07,10.0,ENE,4.6,-,N/A,,Clear,70,2013-07-12 20:53:00
5:53 PM,73.0,62.1,68,30.09,10.0,Calm,Calm,-,N/A,,Mostly Cloudy,0,2013-07-12 21:53:00
6:53 PM,73.0,62.1,68,30.08,10.0,Calm,Calm,-,0.00,,Mostly Cloudy,0,2013-07-12 22:53:00
7:53 PM,70.0,61.0,73,30.10,10.0,SSE,6.9,-,0.00,,Partly Cloudy,160,2013-07-12 23:53:00
8:53 PM,68.0,62.1,81,30.10,10.0,Calm,Calm,-,N/A,,Overcast,0,2013-07-13 00:53:00
9:53 PM,66.9,63.0,87,30.11,10.0,Calm,Calm,-,N/A,,Overcast,0,2013-07-13 01:53:00
10:53 PM,66.0,63.0,90,30.12,10.0,Calm,Calm,-,N/A,,Partly Cloudy,0,2013-07-13 02:53:00
11:53 PM,66.0,63.0,90,30.12,10.0,Calm,Calm,-,N/A,,Overcast,0,2013-07-13 03:53:00